User: anonymous   Login
Location: Sundre
(51.7972°N, 114.6405°W)
Time: 07:43:05
(UTC-07:00)
Language:

UKube-1 - Orbit

View from above orbital plane
View from above orbital plane
View from above satellite
View from above satellite

Ground track
Ground track

The orbit data is extracted from the following two-line orbital elements,

1 40074U 14037F   20022.06300591  .00000152  00000-0  25400-4 0  9993
2 40074  98.4505 201.6433 0003206 223.6054 136.4906 14.84177176299892
Epoch (UTC): 22 January 2020 01:30:43
Eccentricity: 0.0003206
inclination: 98.4505°
perigee height: 614 km
apogee height: 618 km
right ascension of ascending node: 201.6433°
argument of perigee: 223.6054°
revolutions per day: 14.84177176
mean anomaly at epoch: 136.4906°
orbit number at epoch: 29989

The dashed part of the orbit path shows where the satellite is in the earth's shadow,  

DLR